COSMOS 1275 DEB

Satellite information

Favourite Embed

Satellite Type and Status

DEBRISIN ORBIT

Key statistics

Satellite COSMOS 1275 DEB at a glance.

Uptime

16216

Days in orbit

Revolutions

≈ 14.0

Per day

Orbit

LEO

Low Earth Orbit

Inclination

82.9

Latest

Satellite identification and parameters

Extended collection of information and parameters for COSMOS 1275 DEB.

Object identification

Identified? True

Debris? True

Object name: COSMOS 1275 DEB

International designator: 1981-053QQ

Object number (NORAD): 42128

Object ID (CCSDS): 42128

Country: COMMONWEALTH OF INDEPENDENT STATES (CIS)

Current information (Y/N): Y

RCS size: SMALL

Orbital parameters

Period: 103.101 minutes

Inclination: 82.9285 deg

SMA: 7283.398 km

Apoapsis: 923.005 km

Periapsis: 887.522 km

RAAN: 157.7024 deg

Eccentricy: 0.00243587

Argument of periapsis: 240.5412 deg

Mean anomaly: 184.7411 deg

Mean motion: 13.96695308 rev/day

Mean motion (dot): 0.00001041 rev/day2

B* drag term: 0.0007381584 1/REarth

Two-line elements (TLE)

Creation date: Oct. 27, 2025, 2:46 a.m.

Reference frame: TEME

Reference center: EARTH

Epoch: Oct. 26, 2025, 9:41 p.m. UTC

TLE line 0: 0 COSMOS 1275 DEB

TLE line 1: 1 42128U 81053QQ 25299.90358977 .00001041 00000-0 73816-3 0 9993

TLE line 2: 2 42128 82.9285 157.7024 0024359 240.5412 184.7411 13.96695308607278

Live tracking on map

Real-time ground track for satellite COSMOS 1275 DEB.

In-orbit conjunctions

A list of the most updated potential collisions computed for object COSMOS 1275 DEB.

Target Orbit TCA Probability of collision Miss distance Type
METEOR 1-12 LEO 2025-02-06 15:00:10 0.0001120763 578.0 (m) PAYLOAD
COSMOS 2251 DEB LEO 2024-06-29 18:05:42 0.0002202278 87.0 (m) DEBRIS

Associated space launch

Navigation satellite providing location information for the Tsiklon-B navigation system

COSMOS 1275 DEB was lifted into orbit during the mission ‘Kosmos-3M | Parus 27’, on board a Kosmos-3M space rocket.

The launch took place on June 4, 1981, 3:41 p.m. from 132/2.

For more information about the launch, click the button.

Launch to space Kosmos-3M | Parus 27
Kosmos-3M | Parus 27

Agency: N/A

Status: Launch Successful

Launch date: June 4, 1981, 3:41 p.m. UTC

Rocket: Kosmos-3M

Launch pad: 132/2

Location: Plesetsk Cosmodrome, Russian Federation

...

Latest news about this satellite

There are no fresh news available about this satellite. Check back as we update our databases every day.


Newsletter sign-up

Weekly statistics, charts and insights to help you stay on top of the space industry.